TimeCDT,TemperatureF,Dew PointF,Humidity,Sea Level PressureIn,VisibilityMPH,Wind Direction,Wind SpeedMPH,Gust SpeedMPH,PrecipitationIn,Events,Conditions,WindDirDegrees,DateUTC
12:56 AM,72.0,66.9,84,30.00,10.0,WNW,9.2,17.3,N/A,,Mostly Cloudy,290,2012-10-15 05:56:00
1:56 AM,71.1,66.9,87,30.01,9.0,West,5.8,-,N/A,,Overcast,270,2012-10-15 06:56:00
2:56 AM,70.0,64.9,84,30.00,10.0,NW,8.1,-,N/A,,Mostly Cloudy,320,2012-10-15 07:56:00
3:56 AM,66.9,64.0,90,29.99,10.0,Calm,Calm,-,N/A,,Clear,0,2012-10-15 08:56:00
4:56 AM,66.0,64.0,93,30.00,8.0,NW,4.6,-,N/A,,Clear,320,2012-10-15 09:56:00
5:56 AM,64.0,62.1,93,30.01,9.0,NW,5.8,-,N/A,,Clear,320,2012-10-15 10:56:00
6:56 AM,63.0,60.1,90,30.03,10.0,NW,4.6,-,N/A,,Clear,310,2012-10-15 11:56:00
7:56 AM,64.0,61.0,90,30.04,8.0,NW,3.5,-,N/A,,Clear,310,2012-10-15 12:56:00
8:56 AM,66.9,59.0,76,30.06,10.0,NNW,5.8,-,N/A,,Clear,340,2012-10-15 13:56:00
9:56 AM,70.0,57.0,63,30.07,10.0,NNE,9.2,-,N/A,,Clear,20,2012-10-15 14:56:00
10:56 AM,73.0,55.0,53,30.06,10.0,NNW,4.6,-,N/A,,Clear,330,2012-10-15 15:56:00
11:56 AM,75.0,54.0,48,30.06,10.0,NNW,8.1,-,N/A,,Clear,340,2012-10-15 16:56:00
12:56 PM,77.0,53.1,43,30.04,10.0,North,8.1,-,N/A,,Clear,360,2012-10-15 17:56:00
1:56 PM,79.0,48.0,34,30.01,10.0,North,9.2,18.4,N/A,,Clear,360,2012-10-15 18:56:00
2:56 PM,78.1,48.0,35,30.00,10.0,North,9.2,-,N/A,,Clear,360,2012-10-15 19:56:00
3:56 PM,78.1,48.0,35,30.00,10.0,North,8.1,-,N/A,,Partly Cloudy,350,2012-10-15 20:56:00
4:56 PM,77.0,46.9,34,29.99,10.0,NNW,11.5,-,N/A,,Partly Cloudy,340,2012-10-15 21:56:00
5:56 PM,73.0,50.0,44,29.98,10.0,North,5.8,-,N/A,,Partly Cloudy,360,2012-10-15 22:56:00
6:56 PM,66.9,51.1,57,29.99,10.0,North,3.5,-,N/A,,Clear,350,2012-10-15 23:56:00
7:56 PM,63.0,54.0,72,30.00,10.0,NNW,4.6,-,N/A,,Clear,340,2012-10-16 00:56:00
8:56 PM,60.1,54.0,80,30.02,10.0,Calm,Calm,-,N/A,,Clear,0,2012-10-16 01:56:00
9:56 PM,57.0,53.1,87,30.04,10.0,Calm,Calm,-,N/A,,Clear,0,2012-10-16 02:56:00
10:56 PM,55.9,53.1,90,30.05,10.0,Calm,Calm,-,N/A,,Clear,0,2012-10-16 03:56:00
11:56 PM,54.0,51.1,90,30.04,10.0,Calm,Calm,-,N/A,,Clear,0,2012-10-16 04:56:00